Time,TemperatureF,DewpointF,PressureIn,WindDirection,WindDirectionDegrees,WindSpeedMPH,WindSpeedGustMPH,Humidity,HourlyPrecipIn,Conditions,Clouds,dailyrainin,SoftwareType,DateUTC
2013-08-27 00:11:00,79.4,71.6,29.95,SSE,165,5.0,8.0,77,0.00,,---,0.00,VWS V14.01,2013-08-27 05:11:00,
2013-08-27 00:26:00,79.0,71.2,29.95,SSW,193,2.0,7.0,77,0.00,,---,0.00,VWS V14.01,2013-08-27 05:26:00,
2013-08-27 00:41:00,78.6,71.2,29.95,South,187,5.0,8.0,78,0.00,,---,0.00,VWS V14.01,2013-08-27 05:41:00,
2013-08-27 00:56:00,78.4,71.0,29.95,SSW,202,4.0,8.0,78,0.00,,---,0.00,VWS V14.01,2013-08-27 05:56:00,
2013-08-27 01:11:00,78.2,71.2,29.94,South,182,2.0,10.0,79,0.00,,---,0.00,VWS V14.01,2013-08-27 06:11:00,
2013-08-27 01:26:00,78.0,71.0,29.94,SSW,196,1.0,7.0,79,0.00,,---,0.00,VWS V14.01,2013-08-27 06:26:00,
2013-08-27 01:41:00,77.6,70.9,29.94,South,178,5.0,8.0,80,0.00,,---,0.00,VWS V14.01,2013-08-27 06:41:00,
2013-08-27 01:56:00,77.5,70.8,29.94,South,180,4.0,8.0,80,0.00,,---,0.00,VWS V14.01,2013-08-27 06:56:00,
2013-08-27 02:11:00,77.2,70.6,29.93,South,184,4.0,8.0,80,0.00,,---,0.00,VWS V14.01,2013-08-27 07:11:00,
2013-08-27 02:26:00,76.9,70.3,29.93,South,188,3.0,8.0,80,0.00,,---,0.00,VWS V14.01,2013-08-27 07:26:00,
2013-08-27 02:41:00,76.7,70.4,29.93,South,187,3.0,8.0,81,0.00,,---,0.00,VWS V14.01,2013-08-27 07:41:00,
2013-08-27 02:56:00,76.4,70.5,29.94,South,188,5.0,7.0,82,0.00,,---,0.00,VWS V14.01,2013-08-27 07:56:00,
2013-08-27 03:11:00,76.1,70.2,29.93,South,188,5.0,8.0,82,0.00,,---,0.00,VWS V14.01,2013-08-27 08:11:00,
2013-08-27 03:26:00,75.9,70.0,29.94,SSW,196,4.0,9.0,82,0.00,,---,0.00,VWS V14.01,2013-08-27 08:26:00,
2013-08-27 03:41:00,75.6,70.1,29.94,SSW,195,5.0,7.0,83,0.00,,---,0.00,VWS V14.01,2013-08-27 08:41:00,
2013-08-27 03:56:00,75.1,69.9,29.94,SSW,194,4.0,6.0,84,0.00,,---,0.00,VWS V14.01,2013-08-27 08:56:00,
2013-08-27 04:11:00,74.7,69.9,29.94,SSW,198,4.0,7.0,85,0.00,,---,0.00,VWS V14.01,2013-08-27 09:11:00,
2013-08-27 04:26:00,74.4,69.6,29.94,South,189,1.0,7.0,85,0.00,,---,0.00,VWS V14.01,2013-08-27 09:26:00,
2013-08-27 04:41:00,74.1,69.7,29.94,SSW,194,6.0,7.0,86,0.00,,---,0.00,VWS V14.01,2013-08-27 09:41:00,
2013-08-27 04:56:00,73.9,69.4,29.93,SSW,195,2.0,8.0,86,0.00,,---,0.00,VWS V14.01,2013-08-27 09:56:00,
2013-08-27 05:11:00,73.7,69.3,29.93,SSW,196,6.0,8.0,86,0.00,,---,0.00,VWS V14.01,2013-08-27 10:11:00,
2013-08-27 05:26:00,73.5,69.1,29.93,SSW,194,7.0,8.0,86,0.00,,---,0.00,VWS V14.01,2013-08-27 10:26:00,
2013-08-27 05:41:00,73.5,69.1,29.93,SSW,194,4.0,9.0,86,0.00,,---,0.00,VWS V14.01,2013-08-27 10:41:00,
2013-08-27 05:56:00,73.5,68.7,29.94,SSW,204,2.0,10.0,85,0.00,,---,0.00,VWS V14.01,2013-08-27 10:56:00,
2013-08-27 06:11:00,73.2,68.8,29.94,SSW,196,5.0,8.0,86,0.00,,---,0.00,VWS V14.01,2013-08-27 11:11:00,
2013-08-27 06:26:00,73.0,68.6,29.94,South,188,4.0,8.0,86,0.00,,---,0.00,VWS V14.01,2013-08-27 11:26:00,
2013-08-27 06:41:00,72.7,68.6,29.95,SSW,194,6.0,7.0,87,0.00,,---,0.00,VWS V14.01,2013-08-27 11:41:00,
2013-08-27 06:56:00,72.5,68.4,29.95,SSW,192,2.0,7.0,87,0.00,,---,0.00,VWS V14.01,2013-08-27 11:56:00,
2013-08-27 07:11:00,72.5,68.4,29.95,SSW,200,4.0,8.0,87,0.00,,---,0.00,VWS V14.01,2013-08-27 12:11:00,
2013-08-27 07:26:00,72.8,68.7,29.95,South,184,4.0,9.0,87,0.00,,---,0.00,VWS V14.01,2013-08-27 12:26:00,
2013-08-27 07:41:00,73.3,68.9,29.96,South,190,4.0,8.0,86,0.00,,---,0.00,VWS V14.01,2013-08-27 12:41:00,
2013-08-27 07:56:00,74.2,69.1,29.96,South,184,6.0,11.0,84,0.00,,---,0.00,VWS V14.01,2013-08-27 12:56:00,
2013-08-27 08:11:00,75.2,69.0,29.96,SSW,202,8.0,11.0,81,0.00,,---,0.00,VWS V14.01,2013-08-27 13:11:00,
2013-08-27 08:26:00,76.4,69.4,29.96,SSW,198,6.0,10.0,79,0.00,,---,0.00,VWS V14.01,2013-08-27 13:26:00,
2013-08-27 08:41:00,77.5,69.0,29.95,SSW,203,9.0,14.0,75,0.00,,---,0.00,VWS V14.01,2013-08-27 13:41:00,
2013-08-27 08:56:00,78.5,69.5,29.96,SSW,206,5.0,13.0,74,0.00,,---,0.00,VWS V14.01,2013-08-27 13:56:00,
2013-08-27 09:11:00,79.5,69.7,29.96,South,170,7.0,11.0,72,0.00,,---,0.00,VWS V14.01,2013-08-27 14:11:00,
2013-08-27 09:26:00,80.5,69.8,29.96,South,178,6.0,11.0,70,0.00,,---,0.00,VWS V14.01,2013-08-27 14:26:00,
2013-08-27 09:41:00,81.2,69.6,29.96,WSW,240,15.0,15.0,68,0.00,,---,0.00,VWS V14.01,2013-08-27 14:41:00,
2013-08-27 09:56:00,82.1,70.1,29.96,South,176,8.0,16.0,67,0.00,,---,0.00,VWS V14.01,2013-08-27 14:56:00,
2013-08-27 10:11:00,83.1,69.7,29.96,South,189,12.0,14.0,64,0.00,,---,0.00,VWS V14.01,2013-08-27 15:11:00,
2013-08-27 10:26:00,83.8,69.9,29.96,South,184,6.0,14.0,63,0.00,,---,0.00,VWS V14.01,2013-08-27 15:26:00,
2013-08-27 10:41:00,84.5,69.6,29.86,South,190,6.0,16.0,61,0.00,,---,0.00,VWS V14.01,2013-08-27 15:41:00,
2013-08-27 10:56:00,85.1,70.6,29.74,SSW,195,7.0,19.0,62,0.00,,---,0.00,VWS V14.01,2013-08-27 15:56:00,
2013-08-27 11:11:00,86.2,72.1,29.95,SSW,209,6.0,13.0,63,0.00,,---,0.00,VWS V14.01,2013-08-27 16:11:00,
2013-08-27 11:26:00,86.3,70.8,29.95,South,190,7.0,18.0,60,0.00,,---,0.00,VWS V14.01,2013-08-27 16:26:00,
2013-08-27 11:41:00,87.2,71.6,29.95,South,180,5.0,15.0,60,0.00,,---,0.00,VWS V14.01,2013-08-27 16:41:00,
2013-08-27 11:56:00,87.7,70.6,29.95,South,172,7.0,15.0,57,0.00,,---,0.00,VWS V14.01,2013-08-27 16:56:00,
2013-08-27 12:11:00,88.0,69.8,29.94,South,179,5.0,18.0,55,0.00,,---,0.00,VWS V14.01,2013-08-27 17:11:00,
2013-08-27 12:26:00,88.2,70.0,29.93,SSW,205,8.0,17.0,55,0.00,,---,0.00,VWS V14.01,2013-08-27 17:26:00,
2013-08-27 12:41:00,88.5,69.8,29.93,SW,215,6.0,16.0,54,0.00,,---,0.00,VWS V14.01,2013-08-27 17:41:00,
2013-08-27 12:56:00,89.3,71.0,29.93,South,186,10.0,17.0,55,0.00,,---,0.00,VWS V14.01,2013-08-27 17:56:00,
2013-08-27 13:11:00,89.4,70.6,29.92,SSW,198,7.0,17.0,54,0.00,,---,0.00,VWS V14.01,2013-08-27 18:11:00,
2013-08-27 13:26:00,90.4,70.4,29.92,SW,215,10.0,14.0,52,0.00,,---,0.00,VWS V14.01,2013-08-27 18:26:00,
2013-08-27 13:41:00,90.5,71.6,29.91,SSE,167,14.0,17.0,54,0.00,,---,0.00,VWS V14.01,2013-08-27 18:41:00,
2013-08-27 13:56:00,90.9,71.4,29.91,SSE,163,9.0,15.0,53,0.00,,---,0.00,VWS V14.01,2013-08-27 18:56:00,
2013-08-27 14:11:00,90.8,70.2,29.91,SSW,200,9.0,17.0,51,0.00,,---,0.00,VWS V14.01,2013-08-27 19:11:00,
2013-08-27 14:26:00,91.3,70.7,29.90,South,178,5.0,15.0,51,0.00,,---,0.00,VWS V14.01,2013-08-27 19:26:00,
2013-08-27 14:41:00,91.4,70.7,29.90,SSE,167,7.0,18.0,51,0.00,,---,0.00,VWS V14.01,2013-08-27 19:41:00,
2013-08-27 14:56:00,91.5,69.7,29.90,SSW,196,9.0,17.0,49,0.00,,---,0.00,VWS V14.01,2013-08-27 19:56:00,
2013-08-27 15:11:00,91.9,71.2,29.89,South,182,6.0,14.0,51,0.00,,---,0.00,VWS V14.01,2013-08-27 20:11:00,
2013-08-27 15:26:00,92.0,70.7,29.89,South,174,9.0,14.0,50,0.00,,---,0.00,VWS V14.01,2013-08-27 20:26:00,
2013-08-27 15:41:00,92.1,69.6,29.89,South,180,6.0,15.0,48,0.00,,---,0.00,VWS V14.01,2013-08-27 20:41:00,
2013-08-27 15:56:00,92.3,70.4,29.88,South,187,5.0,14.0,49,0.00,,---,0.00,VWS V14.01,2013-08-27 20:56:00,
2013-08-27 16:56:00,92.3,67.9,29.88,SSW,213,9.0,15.0,45,0.00,,---,0.00,VWS V14.01,2013-08-27 21:56:00,
2013-08-27 17:11:00,91.8,69.3,29.88,SW,230,8.0,15.0,48,0.00,,---,0.00,VWS V14.01,2013-08-27 22:11:00,
2013-08-27 17:26:00,91.7,69.8,29.87,SSW,194,9.0,13.0,49,0.00,,---,0.00,VWS V14.01,2013-08-27 22:26:00,
2013-08-27 17:41:00,91.6,69.2,29.87,South,174,6.0,13.0,48,0.00,,---,0.00,VWS V14.01,2013-08-27 22:41:00,
2013-08-27 17:56:00,91.0,69.2,29.87,SSE,158,5.0,15.0,49,0.00,,---,0.00,VWS V14.01,2013-08-27 22:56:00,
2013-08-27 18:11:00,90.6,68.8,29.87,SSW,197,5.0,12.0,49,0.00,,---,0.00,VWS V14.01,2013-08-27 23:11:00,
2013-08-27 18:26:00,89.9,68.2,29.87,South,177,7.0,11.0,49,0.00,,---,0.00,VWS V14.01,2013-08-27 23:26:00,
2013-08-27 18:41:00,89.2,68.2,29.87,SSW,202,5.0,12.0,50,0.00,,---,0.00,VWS V14.01,2013-08-27 23:41:00,
2013-08-27 18:56:00,88.6,67.6,29.87,SSW,197,1.0,11.0,50,0.00,,---,0.00,VWS V14.01,2013-08-27 23:56:00,
2013-08-27 19:11:00,87.8,67.4,29.87,South,183,1.0,10.0,51,0.00,,---,0.00,VWS V14.01,2013-08-28 00:11:00,
2013-08-27 19:26:00,86.8,67.1,29.87,SSW,192,5.0,6.0,52,0.00,,---,0.00,VWS V14.01,2013-08-28 00:26:00,
2013-08-27 19:41:00,85.8,67.2,29.87,SSW,198,1.0,6.0,54,0.00,,---,0.00,VWS V14.01,2013-08-28 00:41:00,
2013-08-27 19:56:00,84.7,66.8,29.87,SSW,197,1.0,4.0,55,0.00,,---,0.00,VWS V14.01,2013-08-28 00:56:00,
2013-08-27 20:11:00,83.8,66.4,29.88,South,190,1.0,5.0,56,0.00,,---,0.00,VWS V14.01,2013-08-28 01:11:00,
2013-08-27 20:26:00,82.6,66.3,29.88,South,191,2.0,4.0,58,0.00,,---,0.00,VWS V14.01,2013-08-28 01:26:00,
2013-08-27 20:41:00,81.4,66.2,29.88,South,191,3.0,4.0,60,0.00,,---,0.00,VWS V14.01,2013-08-28 01:41:00,
2013-08-27 20:56:00,80.9,66.2,29.89,South,188,4.0,5.0,61,0.00,,---,0.00,VWS V14.01,2013-08-28 01:56:00,
2013-08-27 21:11:00,81.1,66.4,29.89,South,184,4.0,7.0,61,0.00,,---,0.00,VWS V14.01,2013-08-28 02:11:00,
2013-08-27 21:26:00,81.2,66.5,29.89,South,180,5.0,8.0,61,0.00,,---,0.00,VWS V14.01,2013-08-28 02:26:00,
2013-08-27 21:41:00,80.6,66.4,29.89,SSW,194,3.0,6.0,62,0.00,,---,0.00,VWS V14.01,2013-08-28 02:41:00,
2013-08-27 21:56:00,80.1,66.4,29.89,SSW,200,5.0,7.0,63,0.00,,---,0.00,VWS V14.01,2013-08-28 02:56:00,
2013-08-27 22:11:00,79.6,66.4,29.89,South,190,2.0,7.0,64,0.00,,---,0.00,VWS V14.01,2013-08-28 03:11:00,
2013-08-27 22:26:00,79.3,66.5,29.90,SSW,203,4.0,7.0,65,0.00,,---,0.00,VWS V14.01,2013-08-28 03:26:00,
2013-08-27 22:41:00,79.1,66.8,29.90,SSW,196,5.0,7.0,66,0.00,,---,0.00,VWS V14.01,2013-08-28 03:41:00,
2013-08-27 22:56:00,78.6,66.7,29.89,South,177,5.0,6.0,67,0.00,,---,0.00,VWS V14.01,2013-08-28 03:56:00,
2013-08-27 23:11:00,78.3,66.4,29.89,SSW,194,1.0,7.0,67,0.00,,---,0.00,VWS V14.01,2013-08-28 04:11:00,
2013-08-27 23:26:00,78.0,66.6,29.90,South,177,2.0,7.0,68,0.00,,---,0.00,VWS V14.01,2013-08-28 04:26:00,
2013-08-27 23:41:00,77.7,66.7,29.89,South,183,3.0,7.0,69,0.00,,---,0.00,VWS V14.01,2013-08-28 04:41:00,
2013-08-27 23:56:00,77.3,66.8,29.89,SSW,198,5.0,6.0,70,0.00,,---,0.00,VWS V14.01,2013-08-28 04:56:00,